Location: Beneden-Haastrecht
(52.0012°N, 4.7557°E)
Time: 05:12:54
(UTC+00:00)

ATLAS 2AS CENTAUR R/B - Pass Details

Date: 24 October 2020
Orbit: 939 x 1273 km, 63.7° (Epoch: 23 November)

Event Time Altitude Azimuth Distance (km) Brightness Sun altitude
Rises 20:05:43 0° 314° (NW) 4,175 6.8 -33.6°
Reaches altitude 10° 20:08:35 10° 314° (NW) 3,171 5.9 -34.0°
Enters shadow 20:15:19 71° 306° (NW) 1,217 2.9 -34.9°
